DW8032 Weather Reports


Display with metric or nautical units.
time (UTC)temp
F
wind
direction
speed
MPH
gust
MPH
rain 1hr
in
rain 24hr
in
rain mn
in
humidity
%
barometer
mb
20190323143136 46 22 0.0 3.0 0.00 0.00 0.00 35 1026.3
20190323141654 45 73 0.0 3.0 0.00 0.00 0.00 40 1026.1
20190323140059 42 325 0.0 4.0 0.00 0.00 0.00 42 1026.0
20190323134702 40 276 1.0 7.0 0.00 0.00 0.00 45 1025.8
20190323133112 38 238 0.0 6.0 0.00 0.00 0.00 50 1025.5
20190323131547 36 34 0.0 5.0 0.00 0.00 0.00 53 1025.3
20190323130059 35 264 2.0 8.0 0.00 0.00 0.00 52 1025.0
20190323124552 35 264 2.0 8.0 0.00 0.00 0.00 49 1024.5
20190323123109 36 232 1.0 3.0 0.00 0.00 0.00 45 1024.3
20190323121558 35 214 1.0 4.0 0.00 0.00 0.00 45 1024.0
20190323120100 35 306 0.0 5.0 0.00 0.00 0.00 46 1023.6
20190323114557 35 243 0.0 1.0 0.00 0.00 0.00 43 1023.4
20190323113038 34 99 0.0 2.0 0.00 0.00 0.00 40 1023.0
20190323111602 35 259 0.0 3.0 0.00 0.00 0.00 39 1022.7
20190323110120 35 316 2.0 5.0 0.00 0.00 0.00 41 1022.0
20190323104536 35 318 3.0 7.0 0.00 0.00 0.00 38 1021.8
20190323103025 35 271 2.0 8.0 0.00 0.00 0.00 46 1021.9
20190323101515 35 277 3.0 7.0 0.00 0.00 0.00 46 1021.6
20190323100013 35 266 5.0 10.0 0.00 0.00 0.00 45 1021.7
20190323094533 35 236 5.0 9.0 0.00 0.00 0.00 45 1021.6
20190323093006 35 274 2.0 8.0 0.00 0.00 0.00 44 1021.2
20190323090147 36 238 3.0 7.0 0.00 0.00 0.00 44 1020.4
20190323084734 36 338 3.0 5.0 0.00 0.00 0.00 45 1020.2
20190323083210 36 236 0.0 5.0 0.00 0.00 0.00 43 1019.8
20190323081709 37 146 2.0 7.0 0.00 0.00 0.00 42 1019.7
20190323080116 37 112 0.0 6.0 0.00 0.00 0.00 45 1019.7
20190323074615 37 241 2.0 7.0 0.00 0.00 0.00 45 1019.8
20190323073111 38 100 1.0 6.0 0.00 0.00 0.00 46 1019.9
20190323071623 38 136 2.0 7.0 0.00 0.00 0.00 45 1019.7
20190323070117 39 205 4.0 13.0 0.00 0.00 0.00 48 1019.4
20190323064553 39 260 3.0 9.0 0.00 0.00 0.00 51 1018.8
20190323063134 39 217 3.0 9.0 0.00 0.00 0.00 55 1018.9
20190323061553 39 280 4.0 10.0 0.00 0.00 0.00 57 1018.6
20190323060040 40 307 4.0 10.0 0.00 0.00 0.00 57 1018.4
20190323054556 40 297 4.0 16.0 0.00 0.00 0.00 60 1018.3
20190323053136 41 322 4.0 10.0 0.00 0.00 0.00 59 1018.2
20190323051559 41 342 4.0 9.0 0.00 0.00 0.00 60 1018.4
20190323050042 41 88 3.0 10.0 0.00 0.00 0.00 60 1018.5
20190323044554 41 211 3.0 11.0 0.00 0.00 0.00 61 1018.5
20190323043034 42 333 4.0 8.0 0.00 0.00 0.00 60 1018.5
20190323041522 42 326 3.0 9.0 0.00 0.00 0.00 58 1018.4
20190323040032 42 305 2.0 8.0 0.00 0.00 0.00 57 1018.4
20190323034511 43 273 3.0 7.0 0.00 0.00 0.00 56 1018.5
20190323033014 43 334 2.0 8.0 0.00 0.00 0.00 55 1018.5
20190323031511 44 326 2.0 5.0 0.00 0.00 0.00 54 1018.2
20190323030018 44 336 2.0 7.0 0.00 0.00 0.00 54 1018.2
20190323024504 44 290 3.0 9.0 0.00 0.00 0.00 52 1017.9
20190323023007 45 287 3.0 12.0 0.00 0.00 0.00 52 1017.7
20190323021501 45 278 2.0 7.0 0.00 0.00 0.00 50 1017.6
20190323020247 46 113 2.0 11.0 0.00 0.00 0.00 49 1017.5
20190323014747 46 316 3.0 9.0 0.00 0.00 0.00 48 1017.3
20190323013155 46 344 4.0 17.0 0.00 0.00 0.00 47 1016.8
20190323011711 47 359 3.0 14.0 0.00 0.00 0.00 45 1016.6
20190323010139 47 281 2.0 11.0 0.00 0.00 0.00 44 1016.3
20190323004606 47 304 3.0 10.0 0.00 0.00 0.00 43 1016.0
20190323003156 48 293 3.0 12.0 0.00 0.00 0.00 42 1015.7
20190323001629 48 225 3.0 12.0 0.00 0.00 0.00 43 1015.5
20190323000235 49 252 5.0 17.0 0.00 0.00 0.00 42 1015.0
20190322234610 49 342 5.0 17.0 0.00 0.00 0.00 41 1014.8
20190322233130 49 245 5.0 18.0 0.00 0.00 0.00 39 1014.6
20190322231600 50 252 4.0 17.0 0.00 0.00 0.00 39 1014.4
20190322230151 50 328 6.0 17.0 0.00 0.00 0.00 38 1013.9
20190322224559 52 165 4.0 22.0 0.00 0.00 0.00 36 1013.6
20190322223104 52 294 3.0 24.0 0.00 0.00 0.00 38 1013.4
20190322221728 52 16 6.0 18.0 0.00 0.00 0.00 41 1013.6
20190322220119 52 311 4.0 28.0 0.00 0.00 0.00 43 1013.1
20190322214617 52 156 7.0 22.0 0.00 0.00 0.00 42 1013.0
20190322213109 52 233 4.0 15.0 0.00 0.00 0.00 43 1013.1
20190322211632 52 58 5.0 21.0 0.00 0.00 0.00 42 1013.2
20190322210120 52 23 3.0 11.0 0.00 0.00 0.00 41 1013.3
20190322204618 52 108 5.0 16.0 0.00 0.07 0.00 41 1013.1
20190322203051 51 290 4.0 20.0 0.00 0.07 0.00 41 1013.4
20190322201554 51 44 5.0 29.0 0.00 0.07 0.00 39 1013.2
20190322200039 51 153 4.0 22.0 0.00 0.07 0.00 40 1013.3
20190322194625 51 301 6.0 21.0 0.00 0.07 0.00 37 1013.3
20190322193048 52 255 6.0 14.0 0.00 0.07 0.00 38 1013.4
20190322191550 51 214 5.0 25.0 0.00 0.07 0.00 38 1013.5
20190322190045 51 281 8.0 19.0 0.00 0.07 0.00 40 1013.7
20190322184552 51 249 6.0 23.0 0.00 0.07 0.00 41 1013.7
20190322183038 51 92 2.0 19.0 0.00 0.07 0.00 44 1014.2
20190322181612 50 225 5.0 21.0 0.00 0.07 0.00 46 1014.2
20190322180048 50 307 4.0 17.0 0.00 0.07 0.00 47 1014.3
20190322174549 50 210 3.0 18.0 0.00 0.07 0.00 49 1014.5
20190322173041 50 276 5.0 12.0 0.00 0.07 0.00 49 1014.8
20190322171543 49 205 4.0 13.0 0.00 0.07 0.00 49 1014.9
20190322170012 48 308 6.0 13.0 0.00 0.07 0.00 49 1015.0
20190322164523 47 250 4.0 13.0 0.00 0.07 0.00 50 1015.2
20190322163015 47 334 4.0 18.0 0.00 0.07 0.00 51 1015.3
20190322161509 46 288 3.0 14.0 0.00 0.07 0.00 53 1015.2
20190322160011 46 83 5.0 10.0 0.00 0.07 0.00 54 1015.2
20190322154740 45 283 3.0 10.0 0.00 0.07 0.00 55 1015.1
20190322153307 43 257 4.0 17.0 0.00 0.07 0.00 56 1015.0
20190322151709 42 243 4.0 9.0 0.00 0.07 0.00 57 1014.6
20190322150140 41 262 4.0 9.0 0.00 0.07 0.00 63 1014.2
20190322144633 40 295 5.0 11.0 0.00 0.07 0.00 63 1014.0
20190322143238 40 301 6.0 16.0 0.00 0.07 0.00 61 1013.8